THORAD AGENA D DEB, 42499

Orbit data source: Space-Track

THORAD AGENA D DEB, 42499 is space debris in SSO originally from a launch on Wed, 08 Apr 1970 UTC launched from the Air Force Western Test Range (AFWTR). Debris objects in space refer to the collection of defunct objects orbiting the Earth. Examples of debris include non-operational satellites, rocket bodies, and fragments generated from explosions, collisions, or faulty payload assembly.

Loading next visibility...
Identifier
42499, 1970-025RD
Orbit
SSO
Country
Flag of USUS
Related business
Manufacturer
Unknown
Mission
Spacecraft
Bus & Motor
Unknown
Mass
Unknown
Launch date (UTC)
1970-04-08 (56 years ago)
Launch vehicle
Unknown
Launch site
Air Force Western Test Range (AFWTR)
Object type
Payload
Rocket body
Debris
Shape & HBR
Unknown shape, 0.1 m
Radar Cross Section
Small (<0.1 m²)

Expand to show TLE details & history
Last TLE update: 3 days ago

TLE from 3 days ago
0 THORAD AGENA D DEB
1 42499U 70025RD  26123.17613021  .00000876  00000-0  89631-3 0  9998
2 42499 100.0950  31.7299 0007575 331.5423  28.5312 13.79721390625142
Epoch: 2026-05-03T04:13Z
TLE epoch observation values (Epoch: 2026-05-03T04:13:37.650Z)
Latitude
-0°
Longitude
107.23959°
Altitude
962.801 km
Speed
7.373 km/s
True Right ascension
02h 06m 55s
True Declination
0° 00' 00"
Sunlit
Object was in daylight at epoch
Visualization orbit readout
Latitude
Unknown
Longitude
Unknown
Altitude
Unknown
Speed
Unknown
Apparent Right ascension
Unknown
Apparent Declination
Unknown
Sunlit
N/A
Visualization observer readout
Local Sidereal Time
06:10:02
Azimuth
Unknown
Elevation
Unknown
Doppler factor
Unknown
Orbital elements
Apogee altitude
967.718 km
Perigee altitude
956.598 km
Semi-major axis
7,340.295 km
Eccentricity
0.00076
Inclination
100.095°
RAAN
31.7299°
Arg. of periapsis
331.5423°
True anomaly
28.57269°
Mean anomaly
28.5312°
Eccentric anomaly
28.55194°
Mean motion
3.45122 °/min
Orbital period
104.31 mins
BSTAR
0.00089631
Loading maneuver chart data...
Computing Atmospheric mass density...

Documentation

Showing up to 5 results
|